Hourly Weather Roundup
Issued by NWS Central Illinois

Home | Current Version | Previous Version | Text Only | Print | Product List | Glossary On
Versions: 1 2 3 4 5 6 7 8 9 10 11 12 13 14 15 16 17 18 19 20 21 22 23 24 25 26 27 28 29 30 31 32 33 34 35 36 37 38 39 40 41 42 43 44 45 46 47 48 49 50
000
NZUS43 KILX 161510
HWRILX

Area Weather Roundup
National Weather Service Lincoln IL
1000 AM CDT WED AUG 16 2017

NOTE:  "FAIR" indicates few or no clouds below 12,000 feet, with
       no sigificant weather and/or obstructions to visibility.


CITY           SKY/WX    TMP DP  RH WIND       PRES   REMARKS
Bloomington    CLOUDY    80  74  81 SE10      30.00S HX  85
Champaign      MOSUNNY   81  72  74 SE7       30.01R HX  85
Danville       MOSUNNY   79  74  84 SE5       29.99S HX  83
Decatur        PTSUNNY   80  73  79 SE10      29.99S HX  84
Effingham      CLOUDY    78  74  88 E8        30.01S HX  81
Flora          CLOUDY    81  75  82 SE8       30.01R HX  87
Galesburg      SUNNY     78  71  80 E6        29.95S
Jacksonville   CLOUDY    77  72  84 S6        29.95S
Lacon          SUNNY     78  71  80 SE6       29.96S HX  80
Lawrenceville  CLOUDY    81  74  79 S6        30.02R HX  86
Litchfield     CLOUDY    74  72  93 S8        29.98S
$$


CITY           SKY/WX    TMP DP  RH WIND       PRES   REMARKS
Lincoln        MOSUNNY   81  74  79 SE9       29.97S HX  87
Macomb         CLOUDY    75  72  90 SE6       29.96F
Mattoon        CLOUDY    78  74  87 SE9       29.99S HX  81
Mt Carmel AP   CLOUDY    80  73  81 S6        30.01S HX  84
Olney-Noble AP CLOUDY    77  75  93 S7        30.01S
Paris AP       CLOUDY    80  74  80 SE6       30.02S HX  85
Peoria         MOSUNNY   80  73  79 SE8       29.96S HX  84
Pontiac        SUNNY     79  75  90 CALM      29.99S HX  82
Rantoul        MOSUNNY   82  74  78 SE8       30.00S HX  88
Robinson       CLOUDY    77  73  88 CALM      30.03R
Springfield    CLOUDY    81  73  76 SE10      29.96R HX  86
Taylorville    CLOUDY    75  73  92 SE8       29.98S
$$

...REGIONAL REPORTS...


CITY           SKY/WX    TMP DP  RH WIND       PRES   REMARKS
Chicago O`Hare SUNNY     79  65  62 E8        29.99F HX  81
Kankakee       SUNNY     78  71  80 SE5       30.01S HX  80
Moline         SUNNY     77  68  73 E9        29.93F
Mount Sterling CLOUDY    74  71  92 SE7       29.93F
Mount Vernon   CLOUDY    78  73  84 S8        30.01R HX  81
Pittsfield     CLOUDY    76  75  97 SE6       29.95F
Quincy         CLOUDY    76  72  87 SE9       29.92F
Rockford       MOSUNNY   78  66  66 SE7       29.99F HX  80
$$


CITY           SKY/WX    TMP DP  RH WIND       PRES   REMARKS
Burlington     MOSUNNY   79  73  82 SE7       29.91F HX  82
Cedar Rapids   MOSUNNY   75  71  87 E12       29.91F
Des Moines     CLOUDY    76  71  85 SE8       29.84F
Kirksville     CLOUDY    75  72  90 S6        29.92R
Ottumwa        PTSUNNY   78  73  84 S13       29.89S HX  81
St Louis       CLOUDY    80  73  79 S10       29.96S HX  84
$$


CITY           SKY/WX    TMP DP  RH WIND       PRES   REMARKS
Terre Haute    MOSUNNY   81  73  76 SE7       30.02S HX  86
Evansville     CLOUDY    80  72  76 SW7       30.03S HX  84
Indianapolis   MOSUNNY   83  70  64 VRB7      30.03S HX  87
Lafayette      SUNNY     81  72  74 CALM      30.01S HX  85
Madison        CLOUDY    72  60  66 E9        30.00F
Milwaukee      MOSUNNY   74  65  73 E7        30.02S
$$






USA.gov is the U.S. government's official web portal to all federal, state and local government web resources and services.